Location: Gleizolles
(44.4833°N, 6.7667°E)
Time: 13:45:44
(UTC+00:00)

Vanguard 1 - Pass Details

Date: 30 June 2024
Orbit: 650 x 3826 km, 34.3° (Epoch: 15 July)

Event Time Altitude Azimuth Distance (km) Brightness Sun altitude
Rises 10:42:19 0° 253° (WSW) 6,061 14.0 65.9°
Reaches altitude 10° 10:47:15 10° 248° (WSW) 4,507 13.5 66.4°
Maximum altitude 10:57:17 41° 184° (S) 1,812 12.7 67.2°
Drops below altitude 10° 11:03:11 10° 115° (ESE) 2,660 12.7 67.6°
Sets 11:05:22 0° 107° (ESE) 3,389 13.0 67.7°
